Voltar ao catálogo

IRIDE-MS2-HEO-1

AtivoCiênciaSSO
NORAD 62697·PAYLOAD·🇮🇹 Italy

Lançado Jan 14, 2025 de Vandenberg Space Force Base

Loading…

Próximas Passagens (próximas 24 horas)

TLE

AtualizadoSource: Space-Track

Época: Sep 14, 2026, 12:58 UTC

1 62697U 25009CS  26257.54057898  .00001101  00000-0  10674-3 0  9998
2 62697  97.6980 334.1749 0003677  78.8031 281.3602 14.94661725 90682

Acompanhe IRIDE-MS2-HEO-1 em tempo real com AllMySat

Download on the App Store